Weather History for Newport, VT

Change the Weather History Date:

Wednesday, March 27, 2013

  Actual Average Record
Temperature  
Mean Temperature 31 °F -  
Max Temperature 39 °F 43 °F 68 °F (1945)
Min Temperature 23 °F 20 °F -3 °F (1971)
Degree Days  
Heating Degree Days 34    
Moisture  
Dew Point 25 °F    
Average Humidity 73    
Maximum Humidity 94    
Minimum Humidity 54    
Precipitation  
Precipitation 0.00 in - - ()
Sea Level Pressure  
Sea Level Pressure 29.82 in    
Wind  
Wind Speed 2 mph (NW)    
Max Wind Speed 14 mph    
Max Gust Speed 18 mph    
Visibility 8 miles    
Events Rain , Snow    
Averages and records for this station are not official NWS values.
T = Trace of Precipitation, MM = Missing Value Source: NWS Daily Summary

Daily Weather History Graph

Daily Weather History Graph

Search for Another Location

Airport:

Trip Planner

Search our weather history database for the weather conditions in past years. The results will help you decide how hot, cold, wet, or windy it might be!

Date:

Astronomy

Mar. 27, 2013 Rise Set
Actual Time 6:38 AM EDT 7:10 PM EDT
Civil Twilight 6:09 AM EDT 7:40 PM EDT
Nautical Twilight 5:34 AM EDT 8:14 PM EDT
Astronomical Twilight 4:58 AM EDT 8:51 PM EDT
Moon 7:54 PM EDT (3/27) 6:25 AM EDT (3/27)
Length of Visible Light 13h 30m
Length of Day
12h 32m
Full, 100% of the Moon is Illuminated
Mar 27
Full
Apr 3
Last Quarter
Apr 10
New
Apr 18
First Quarter
Apr 25
Full

Hourly Weather History & Observations

Time (EDT) Temp. Windchill Dew Point Humidity Pressure Visibility Wind Dir Wind Speed Gust Speed Precip Events Conditions
12:15 AM 32.4 °F - 21.9 °F 65% 29.75 in 10.0 mi Calm Calm - N/A   Overcast
12:35 AM 32.0 °F 28.7 °F 22.5 °F 68% 29.75 in 10.0 mi East 3.5 mph - N/A   Overcast
12:55 AM 31.6 °F - 22.3 °F 68% 29.75 in 10.0 mi Calm Calm - N/A   Overcast
1:15 AM 31.6 °F - 21.9 °F 67% 29.75 in 10.0 mi Calm Calm - N/A   Overcast
1:35 AM 32.2 °F - 21.2 °F 64% 29.75 in 10.0 mi Calm Calm - N/A   Overcast
1:55 AM 32.0 °F - 21.6 °F 65% 29.75 in 10.0 mi Calm Calm - N/A   Overcast
2:15 AM 33.8 °F - 20.3 °F 58% 29.75 in 10.0 mi Calm Calm - N/A   Overcast
2:35 AM 29.3 °F - 21.9 °F 74% 29.75 in 10.0 mi Calm Calm - N/A   Overcast
2:55 AM 31.6 °F - 21.2 °F 65% 29.74 in 10.0 mi Calm Calm - N/A   Overcast
3:15 AM 28.4 °F - 21.6 °F 76% 29.74 in 10.0 mi Calm Calm - N/A   Overcast
3:55 AM 29.7 °F - 20.8 °F 70% 29.74 in 10.0 mi Calm Calm - N/A   Overcast
4:15 AM 30.0 °F - 20.1 °F 67% 29.74 in 10.0 mi Calm Calm - N/A   Overcast
4:35 AM 29.5 °F - 20.5 °F 69% 29.74 in 10.0 mi Calm Calm - N/A   Overcast
4:55 AM 30.2 °F - 20.8 °F 68% 29.74 in 10.0 mi Calm Calm - N/A   Scattered Clouds
5:15 AM 28.4 °F - 20.1 °F 71% 29.75 in 10.0 mi Calm Calm - N/A   Clear
5:35 AM 28.8 °F - 20.5 °F 71% 29.75 in 10.0 mi Calm Calm - N/A   Clear
5:55 AM 25.5 °F - 19.0 °F 76% 29.75 in 10.0 mi Calm Calm - N/A   Clear
6:15 AM 23.9 °F - 18.5 °F 80% 29.76 in 10.0 mi Calm Calm - N/A   Clear
6:35 AM 28.0 °F - 21.0 °F 75% 29.77 in 10.0 mi Calm Calm - N/A   Clear
6:55 AM 25.9 °F - 20.1 °F 79% 29.77 in 10.0 mi Calm Calm - N/A   Clear
7:15 AM 29.1 °F - 21.4 °F 73% 29.78 in 10.0 mi Calm Calm - N/A   Scattered Clouds
7:35 AM 27.0 °F - 19.8 °F 74% 29.78 in 10.0 mi Calm Calm - N/A   Mostly Cloudy
7:55 AM 30.6 °F 27.1 °F 21.9 °F 70% 29.79 in 10.0 mi NW 3.5 mph - N/A   Overcast
8:15 AM 29.1 °F - 22.8 °F 77% 29.79 in 10.0 mi Calm Calm - N/A   Overcast
8:35 AM 29.8 °F - 23.2 °F 76% 29.80 in 10.0 mi Calm Calm - N/A   Overcast
8:55 AM 32.0 °F - 23.0 °F 69% 29.80 in 10.0 mi Calm Calm - N/A   Overcast
9:15 AM 32.5 °F - 23.0 °F 68% 29.80 in 10.0 mi Calm Calm - N/A   Mostly Cloudy
9:55 AM 33.8 °F 30.8 °F 24.4 °F 69% 29.81 in 10.0 mi NNE 3.5 mph - N/A   Overcast
10:15 AM 34.9 °F - 24.6 °F 66% 29.81 in 10.0 mi Calm Calm - N/A   Mostly Cloudy
10:35 AM 36.3 °F - 25.2 °F 64% 29.81 in 10.0 mi Calm Calm - N/A   Overcast
10:55 AM 36.5 °F 33.9 °F 25.7 °F 65% 29.81 in 10.0 mi NNW 3.5 mph - N/A   Overcast
11:15 AM 37.2 °F 32.6 °F 25.5 °F 63% 29.81 in 10.0 mi NW 5.8 mph - N/A   Mostly Cloudy
11:35 AM 37.6 °F 31.6 °F 25.3 °F 61% 29.81 in 10.0 mi WNW 8.1 mph - N/A   Mostly Cloudy
11:55 AM 37.9 °F 33.5 °F 25.0 °F 60% 29.81 in 10.0 mi NW 5.8 mph - N/A   Mostly Cloudy
12:15 PM 37.6 °F 32.3 °F 26.1 °F 63% 29.81 in 10.0 mi NNW 6.9 mph - N/A   Overcast
12:35 PM 38.1 °F 32.3 °F 24.8 °F 59% 29.81 in 10.0 mi NW 8.1 mph - N/A   Overcast
12:55 PM 37.8 °F 31.3 °F 25.2 °F 60% 29.81 in 10.0 mi NW 9.2 mph 16.1 mph N/A   Overcast
1:15 PM 38.7 °F 30.5 °F 24.6 °F 57% 29.81 in 10.0 mi NW 13.8 mph 18.4 mph N/A   Overcast
1:35 PM 38.7 °F 31.8 °F 24.4 °F 57% 29.81 in 10.0 mi NNW 10.4 mph - N/A   Overcast
1:55 PM 39.0 °F 33.4 °F 24.3 °F 55% 29.81 in 10.0 mi NW 8.1 mph - N/A   Overcast
2:15 PM 39.4 °F 32.3 °F 24.1 °F 54% 29.81 in 10.0 mi West 11.5 mph 18.4 mph N/A   Overcast
2:35 PM 38.8 °F 31.6 °F 24.8 °F 57% 29.81 in 10.0 mi NW 11.5 mph 18.4 mph N/A   Overcast
2:55 PM 38.8 °F 32.1 °F 25.2 °F 58% 29.81 in 10.0 mi NNW 10.4 mph 16.1 mph N/A   Overcast
3:15 PM 39.2 °F 32.5 °F 25.3 °F 58% 29.82 in 10.0 mi NNW 10.4 mph 17.3 mph N/A   Overcast
3:35 PM 38.5 °F 30.7 °F 25.7 °F 60% 29.82 in 10.0 mi NW 12.7 mph 18.4 mph N/A   Overcast
3:55 PM 37.8 °F 31.8 °F 26.4 °F 64% 29.83 in 10.0 mi NW 8.1 mph 18.4 mph N/A   Overcast
4:15 PM 37.6 °F 31.6 °F 27.7 °F 67% 29.83 in 10.0 mi NNW 8.1 mph - N/A   Overcast
4:35 PM 37.4 °F 30.8 °F 27.9 °F 68% 29.83 in 10.0 mi NW 9.2 mph - N/A   Overcast
4:55 PM 37.0 °F 30.4 °F 28.0 °F 70% 29.83 in 10.0 mi NNW 9.2 mph - N/A   Overcast
5:15 PM 37.0 °F 31.6 °F 28.2 °F 70% 29.84 in 10.0 mi NW 6.9 mph - N/A   Drizzle
5:35 PM 36.5 °F 29.7 °F 29.3 °F 75% 29.85 in 10.0 mi NNW 9.2 mph - N/A Rain Light Rain
5:55 PM 35.6 °F 29.9 °F 30.0 °F 80% 29.86 in 7.0 mi NNW 6.9 mph - N/A Rain Light Rain
6:15 PM 35.2 °F 30.3 °F 30.6 °F 83% 29.86 in 7.0 mi WNW 5.8 mph - N/A Rain Light Rain
6:35 PM 34.7 °F 30.6 °F 30.7 °F 85% 29.87 in 7.0 mi NNW 4.6 mph - N/A Rain Rain
6:55 PM 34.7 °F 30.6 °F 31.1 °F 87% 29.87 in 7.0 mi NW 4.6 mph - N/A Rain Rain
7:15 PM 34.2 °F 31.2 °F 31.1 °F 89% 29.88 in 10.0 mi NNW 3.5 mph - N/A   Light Drizzle
7:35 PM 34.0 °F 29.8 °F 30.9 °F 89% 29.89 in 5.0 mi NNW 4.6 mph - N/A Rain Rain
7:55 PM 33.6 °F 30.6 °F 30.9 °F 90% 29.89 in 5.0 mi NNW 3.5 mph - N/A Rain Light Rain
8:15 PM 32.9 °F - 30.7 °F 92% 29.90 in 3.0 mi Calm Calm - N/A Snow Light Snow
8:35 PM 32.5 °F - 30.7 °F 93% 29.90 in 3.0 mi Calm Calm - N/A Snow Light Snow
8:55 PM 32.5 °F - 30.9 °F 94% 29.90 in 3.0 mi Calm Calm - N/A Snow Light Snow
9:15 PM 32.5 °F - 30.9 °F 94% 29.91 in 4.0 mi Calm Calm - N/A Snow Light Snow
9:35 PM 32.5 °F - 30.9 °F 94% 29.91 in 2.5 mi Calm Calm - N/A Snow Light Snow
9:55 PM 32.5 °F - 30.7 °F 93% 29.91 in 2.5 mi Calm Calm - N/A Snow Light Snow
10:15 PM 32.5 °F - 30.7 °F 93% 29.91 in 2.0 mi Calm Calm - N/A Snow Light Snow
10:35 PM 32.4 °F - 30.7 °F 94% 29.91 in 2.0 mi Calm Calm - N/A Snow Light Snow
10:55 PM 32.4 °F - 30.9 °F 94% 29.91 in 2.5 mi Calm Calm - N/A Snow Light Snow
11:15 PM 32.4 °F - 30.9 °F 94% 29.91 in 2.0 mi Calm Calm - N/A Snow Light Snow
11:35 PM 32.4 °F - 30.9 °F 94% 29.90 in 2.0 mi Calm Calm - N/A Snow Light Snow
11:55 PM 32.4 °F - 30.9 °F 94% 29.90 in 2.5 mi Calm Calm - N/A Snow Light Snow